W1NJC Weather Reports


time (UTC)temp
C
wind
direction
speed
KPH
gust
KPH
rain 1hr
cm
rain 24hr
cm
rain mn
cm
humidity
%
barometer
mb
20260505013603 13 226 6.4 17.7 0.00 0.00 0.00 62 1009.5
20260505012703 13 219 4.8 14.5 0.00 0.00 0.00 61 1009.5
20260505011824 13 212 4.8 19.3 0.00 0.00 0.00 60 1009.3
20260505010903 13 218 4.8 12.9 0.00 0.00 0.00 59 1009.2
20260505010024 14 204 3.2 11.3 0.00 0.00 0.00 58 1009.0
20260505005424 14 212 4.8 17.7 0.00 0.00 0.00 57 1008.8
20260505004503 15 213 4.8 16.1 0.00 0.00 0.00 56 1008.8
20260505003603 15 213 4.8 12.9 0.00 0.00 0.00 55 1008.6
20260505002704 15 216 3.2 19.3 0.00 0.00 0.00 53 1008.4
20260505001803 15 202 4.8 12.9 0.00 0.00 0.00 52 1008.2
20260505000903 15 226 6.4 17.7 0.00 0.00 0.00 51 1008.0
20260505000003 16 220 4.8 19.3 0.00 0.00 0.00 50 1007.9
20260504235403 16 222 3.2 19.3 0.00 0.00 0.00 50 1007.8
20260504234524 16 209 6.4 17.7 0.00 0.00 0.00 48 1007.7
20260504233603 16 203 6.4 27.4 0.00 0.00 0.00 48 1007.5
20260504232703 17 195 4.8 17.7 0.00 0.00 0.00 47 1007.5
20260504231803 17 198 8.0 29.0 0.00 0.00 0.00 47 1007.3
20260504230903 17 203 8.0 24.1 0.00 0.00 0.00 45 1007.2
20260504230003 17 209 8.0 27.4 0.00 0.00 0.00 44 1007.2
20260504225403 17 177 6.4 25.7 0.00 0.00 0.00 45 1007.1
20260504224503 18 198 9.7 32.2 0.00 0.00 0.00 43 1006.9
20260504223603 18 208 9.7 35.4 0.00 0.00 0.00 43 1006.8
20260504222724 18 205 9.7 24.1 0.00 0.00 0.00 41 1006.8
20260504221824 19 192 4.8 25.7 0.00 0.00 0.00 40 1006.7
20260504220924 20 171 9.7 24.1 0.00 0.00 0.00 39 1006.6
20260504220003 20 191 8.0 29.0 0.00 0.00 0.00 37 1006.5
20260504215403 20 190 8.0 20.9 0.00 0.00 0.00 37 1006.6
20260504214503 21 200 8.0 29.0 0.00 0.00 0.00 36 1006.5
20260504213603 22 166 9.7 24.1 0.00 0.00 0.00 33 1006.5
20260504212703 22 196 9.7 38.6 0.00 0.00 0.00 35 1006.5
20260504211803 22 234 6.4 38.6 0.00 0.00 0.00 31 1006.5
20260504210903 22 251 6.4 17.7 0.00 0.00 0.00 30 1006.3
20260504210003 23 248 4.8 16.1 0.00 0.00 0.00 29 1006.2
20260504205403 23 229 6.4 19.3 0.00 0.00 0.00 32 1006.3
20260504204503 23 219 9.7 27.4 0.00 0.00 0.00 30 1006.2
20260504203603 23 232 8.0 38.6 0.00 0.00 0.00 28 1006.3
20260504202724 22 181 9.7 33.8 0.00 0.00 0.00 29 1006.2
20260504201824 23 223 9.7 24.1 0.00 0.00 0.00 28 1006.5
20260504200903 22 236 6.4 22.5 0.00 0.00 0.00 27 1006.4
20260504200003 23 228 8.0 20.9 0.00 0.00 0.00 29 1006.4
20260504195424 22 235 8.0 29.0 0.00 0.00 0.00 30 1006.5
20260504194503 22 220 9.7 30.6 0.00 0.00 0.00 29 1006.5
20260504193603 22 247 11.3 30.6 0.00 0.00 0.00 30 1006.4
20260504192724 22 226 9.7 30.6 0.00 0.00 0.00 28 1006.5
20260504191803 22 229 11.3 32.2 0.00 0.00 0.00 29 1006.4
20260504190903 22 236 6.4 32.2 0.00 0.00 0.00 28 1006.5
20260504190003 22 235 9.7 27.4 0.00 0.00 0.00 28 1006.6
20260504185403 22 218 9.7 24.1 0.00 0.00 0.00 29 1006.7
20260504184503 21 221 11.3 30.6 0.00 0.00 0.00 27 1007.0
20260504183603 21 226 8.0 25.7 0.00 0.00 0.00 28 1006.9
20260504182703 21 223 12.9 40.2 0.00 0.00 0.00 30 1007.1
20260504181803 21 214 14.5 41.8 0.00 0.00 0.00 29 1007.0
20260504180924 21 231 9.7 27.4 0.00 0.00 0.00 29 1007.1
20260504180003 20 226 12.9 37.0 0.00 0.00 0.00 28 1007.3
20260504175424 21 219 11.3 41.8 0.00 0.00 0.00 28 1007.3
20260504174503 21 244 12.9 30.6 0.00 0.00 0.00 29 1007.4
20260504173603 20 209 9.7 25.7 0.00 0.00 0.00 29 1007.2
20260504172703 20 236 11.3 35.4 0.00 0.00 0.00 29 1007.4
20260504171803 20 243 12.9 43.5 0.00 0.00 0.00 29 1007.4
20260504170903 20 222 11.3 30.6 0.00 0.00 0.00 29 1007.5
20260504150903 17 241 11.3 24.1 0.00 0.00 0.00 35 1008.9
20260504140903 16 223 8.0 25.7 0.00 0.00 0.00 40 1009.1
20260504081824 3 210 0.0 1.6 0.00 0.00 0.00 78 1009.7
20260504080903 3 220 0.0 4.8 0.00 0.00 0.00 76 1009.6
20260504050024 2 0 0.0 0.0 0.00 0.00 0.00 79 1009.8
20260504045403 2 0 0.0 0.0 0.00 0.00 0.00 80 1009.8
20260504044504 2 0 0.0 0.0 0.00 0.00 0.00 79 1009.8
20260504043603 2 0 0.0 0.0 0.00 0.00 0.00 79 1009.7
20260504042703 2 0 0.0 0.0 0.00 0.00 0.00 80 1009.7
20260504041824 2 0 0.0 0.0 0.00 0.00 0.00 79 1009.7
20260504040903 1 0 0.0 0.0 0.00 0.00 0.00 80 1009.6
20260504040004 1 0 0.0 0.0 0.00 0.00 0.00 81 1009.6
20260504035403 1 0 0.0 0.0 0.00 0.00 0.00 81 1009.6
20260504034503 1 0 0.0 0.0 0.00 0.00 0.00 80 1009.5
20260504033603 1 0 0.0 0.0 0.00 0.00 0.00 79 1009.5
20260504032703 2 0 0.0 0.0 0.00 0.00 0.00 79 1009.4
20260504031803 2 0 0.0 0.0 0.00 0.00 0.00 79 1009.3
20260504030903 2 0 0.0 0.0 0.00 0.00 0.00 78 1009.3
20260504030003 2 0 0.0 0.0 0.00 0.00 0.00 78 1009.2
20260504025403 2 0 0.0 0.0 0.00 0.00 0.00 77 1009.2
20260504024503 2 0 0.0 0.0 0.00 0.00 0.00 76 1009.2
20260504023603 2 0 0.0 0.0 0.00 0.00 0.00 76 1009.1
20260504022724 2 0 0.0 0.0 0.00 0.00 0.00 75 1009.1
20260504021803 2 0 0.0 0.0 0.00 0.00 0.00 75 1009.0
20260504020903 2 0 0.0 0.0 0.00 0.00 0.00 73 1009.0
20260504020003 3 0 0.0 0.0 0.00 0.00 0.00 72 1009.0
20260504015403 3 0 0.0 0.0 0.00 0.00 0.00 72 1008.9
20260504014503 3 0 0.0 0.0 0.00 0.00 0.00 71 1008.9